sat.trackr.live / text

‹ back to catalog

STARLINK-35530

NORAD 65921 · 2025-225M

PAYLOAD ACTIVE UNKNOWN

§ Identity

Operator
Country
US
Launch date
2025-10-08
Launch site
AFWTR
Launch vehicle
Mass (kg)
RCS (m²)

Purposes: comms

External: N2YO · Heavens-Above · Gunter

§ Orbital elements

Epoch: 2026-09-20T22:28:07.470912Z

Period
93.85 min
Inclination
53.1606°
Eccentricity
0.0001282
Mean motion
15.34402744 rev/d
Perigee alt
461.8 km
Apogee alt
463.6 km
Semi-major
6,840.8 km
B*
6.4462e-4
RAAN
335.7710°
Arg perigee
78.3839°
Mean anomaly
281.7308°
Rev number
5,434

§ Raw data

STARLINK-355301 65921U 25225M   26263.93619758  .00021467  00000+0  64462-3 0  99902 65921  53.1606 335.7710 0001282  78.3839 281.7308 15.34402744 54342

JSON: /api/v1/satellites/65921 · /tle

For live sub-satellite position, see the globe view (requires WebGL).

§ Visibility from observer

Set your observer location to see the next 7 days of passes ≥ 10°. The values pass through the URL so the page stays shareable.

No JS? Fill the form by hand. The geolocation button needs JavaScript.